Tracking 30313 objects as of 22-Apr-2025
HD Live streaming from Space Station
objects crossing your sky now

STARLINK-33828

Track STARLINK-33828 now!
10-day predictions
STARLINK-33828 is classified as:


NORAD ID: 63493
Int'l Code: 2025-071A
Perigee: 353.2 km
Apogee: 354.9 km
Inclination: 53.2 °
Period: 91.5 minutes
Semi major axis: 6725 km
RCS: Unknown
Launch date: April 7, 2025
Source: United States (US)
Launch site: AIR FORCE WESTERN TEST RANGE (AFWTR)
Your satellite tracking list
Your tracking list is empty




NASA's NSSDC Master Catalog

Two Line Element Set (TLE):
1 63493U 25071A   25111.91668981 -.00047228  00000-0 -31991-3 0  9999
2 63493  53.1579 202.4510 0001242  74.7770 292.5267 15.74193273  3392
Source of the keplerian elements: AFSPC